Location: Spor
(46.2167°N, 11.0500°E)
Time: 20:52:17
(UTC+00:00)

Shenzhou-11 Module - Pass Details

Date: 07 June 2020
Orbit: 263 x 283 km, 42.8° (Epoch: 13 July)

Event Time Altitude Azimuth Distance (km) Brightness Sun altitude
Exits shadow 00:59:51 11° 109° (ESE) 1,000 4.2 -17.0°
Drops below altitude 10° 01:00:01 10° 107° (ESE) 1,059 4.4 -17.0°
Sets 01:02:01 0° 95° (E) 1,870 5.8 -16.8°
